RH
20 23 27 31 35 35 34 34 33 32 31 31 33 33 31 30 32 38 44 49 51 49 43 35 30 27 24 27 33 35 34 33 30 24 19 16 14 13 15 15 16 16 17 18 19 19 20 21 22 23 23 23 22 20 18 18 18 17 14 13 13 14 14 15 16 16 17 17 18 19 20 20 21 22
28 24 24 26 30 32 32 33 33 33 32 32 32 32 32 32 31 31 33 38 43 49 50 44 40 37 28 24 27 31 34 35 35 33 26 21 18 15 13 13 14 16 16 17 18 19 20 20 21 24 25 25 26 25 22 19 20 21 19 16 14 14 15 16 16 17 18 19 19 20 21 21 21 21
47 41 39 36 33 35 37 37 37 35 32 33 33 32 33 33 32 32 30 31 33 40 47 48 49 50 42 30 24 25 28 30 34 38 36 33 30 24 19 15 13 13 14 15 17 18 19 19 20 22 24 26 28 29 28 24 22 21 23 22 19 15 14 15 16 17 18 19 20 21 21 22 23 23
57 53 49 44 44 49 52 50 49 46 38 33 33 33 34 34 35 36 33 31 31 31 35 41 48 56 55 45 32 24 23 24 28 36 39 39 37 35 33 28 22 18 15 13 14 16 17 18 19 20 21 24 27 30 32 31 27 24 23 24 24 21 18 16 16 16 17 18 20 22 23 23 25 25
66 63 48 35 36 48 59 57 54 56 52 41 36 34 34 34 35 37 37 34 33 33 32 33 38 48 58 58 49 41 35 28 25 29 33 32 31 33 37 36 33 30 23 17 14 14 15 16 16 18 20 22 25 29 32 33 33 30 28 27 26 26 24 22 21 19 18 19 20 23 25 26 27 27
74 71 55 40 34 42 57 60 57 60 61 58 52 43 37 36 36 38 40 38 37 37 35 34 36 45 58 63 62 67 65 46 30 28 31 31 29 28 29 29 30 30 28 25 21 16 15 14 15 16 17 20 23 27 30 32 34 34 33 32 31 30 29 27 26 25 25 25 26 27 28 30 31 31
74 70 62 56 53 53 58 62 64 67 67 68 66 54 43 39 38 40 42 42 41 43 45 51 59 64 69 67 62 67 74 65 52 45 40 38 35 32 30 29 29 31 32 33 31 28 24 20 17 16 16 17 19 22 26 28 31 34 35 36 35 34 34 33 31 30 30 31 32 32 33 34 35 35
72 71 65 61 62 63 62 64 68 70 69 64 61 60 58 52 47 47 47 46 51 57 58 59 61 60 60 60 57 56 63 71 74 72 65 60 52 42 37 35 35 39 43 41 37 37 37 34 30 24 19 16 16 18 21 24 28 30 32 35 37 37 36 36 36 35 33 33 33 35 36 36 37 38
72 71 67 61 60 60 61 66 70 72 75 69 60 59 62 61 58 59 59 60 63 66 59 50 50 54 56 60 61 58 58 62 68 73 76 77 71 59 49 44 40 39 46 49 46 44 44 45 43 36 28 21 18 16 16 19 23 26 29 31 35 37 37 36 37 37 36 35 34 36 37 38 37 38
73 73 71 68 66 63 62 65 68 71 77 76 67 59 60 64 62 60 63 64 65 69 65 53 49 54 58 59 60 61 60 58 59 63 66 68 72 70 65 62 59 52 48 48 49 51 53 53 50 44 37 30 24 21 18 16 17 21 25 28 31 35 37 37 35 35 35 36 36 37 37 36 35 35
73 72 73 74 72 71 69 67 68 72 72 71 67 62 68 77 69 60 63 63 61 68 73 65 60 60 59 57 59 63 64 59 51 52 60 61 59 59 60 67 75 70 56 45 44 48 53 56 55 50 44 40 35 32 28 23 19 17 18 23 28 31 34 36 36 34 34 35 36 37 37 35 32 32
73 70 71 72 71 70 71 71 72 74 71 70 69 64 70 80 73 62 63 64 62 64 62 63 71 73 64 57 59 62 65 60 44 42 56 57 49 51 54 59 71 77 69 59 51 45 44 49 56 56 52 47 44 43 40 35 29 24 18 17 22 27 30 33 35 34 33 34 35 36 36 34 31 29
70 68 68 67 66 68 72 76 77 76 74 74 75 69 67 72 72 68 68 69 70 67 58 59 70 74 66 58 56 55 57 56 46 45 55 50 45 57 58 48 52 65 73 70 59 49 44 44 50 57 57 54 50 49 48 43 39 34 27 20 18 22 27 31 34 34 33 33 33 34 35 34 32 30
65 65 64 62 62 64 68 70 70 69 70 71 74 75 73 74 75 74 73 71 70 69 68 68 70 72 68 58 52 51 53 53 50 50 55 52 53 66 68 53 42 43 56 65 61 54 51 48 50 55 57 59 58 55 51 48 46 43 37 30 23 21 24 27 30 34 34 34 34 33 33 33 32 31
60 60 59 57 57 57 57 57 56 54 55 57 63 70 73 74 73 73 73 72 69 68 70 73 73 73 70 61 57 58 57 57 57 53 56 62 65 70 73 67 52 45 55 69 71 67 62 56 54 53 52 57 60 58 55 52 50 48 44 40 33 26 24 25 27 31 33 34 35 34 33 32 32 32
49 51 52 52 53 54 54 55 55 53 52 52 57 62 63 61 64 68 69 69 70 70 69 73 77 76 72 66 61 60 57 57 59 58 62 70 72 70 70 68 64 65 70 73 74 76 72 64 59 53 50 54 55 53 54 53 51 50 49 48 44 36 30 26 26 28 30 32 34 35 35 34 32 32
38 40 43 44 45 48 50 53 55 57 56 55 57 60 60 59 62 64 61 59 61 62 64 67 67 66 70 70 65 65 67 65 62 60 62 67 70 71 70 71 75 76 76 75 72 70 67 64 66 64 58 57 55 51 51 53 54 53 53 53 51 46 40 33 29 29 29 31 33 34 35 35 34 33
29 30 33 34 35 38 41 45 48 51 52 51 51 51 53 56 59 60 59 59 58 56 57 59 56 56 64 69 68 69 72 72 70 67 67 72 76 75 71 73 75 69 70 78 77 70 68 65 67 71 67 61 59 56 53 54 54 54 54 55 55 53 50 44 37 33 30 30 33 35 35 35 35 35
22 23 25 26 27 29 32 34 36 37 38 40 41 41 41 43 46 50 53 56 58 58 57 58 58 57 60 63 63 62 63 66 70 72 74 79 80 75 72 75 75 68 69 76 72 70 75 73 69 71 70 64 62 61 58 55 53 52 53 55 56 56 56 54 49 43 36 31 31 33 34 35 35 35
19 19 21 21 22 23 23 25 26 26 26 27 29 30 30 30 30 32 35 36 39 41 42 42 43 43 45 48 51 52 53 57 63 67 72 78 76 69 68 71 70 67 68 72 70 68 69 70 70 69 66 64 64 64 61 58 55 54 56 57 57 55 57 59 57 52 46 40 35 34 34 36 36 36
16 16 17 18 18 19 19 19 20 20 20 20 21 20 21 21 21 21 21 22 22 23 23 24 24 24 25 26 28 32 35 38 43 48 53 61 65 66 68 67 63 63 63 67 72 72 68 67 68 67 65 66 69 69 65 60 58 58 58 57 54 52 54 58 60 57 52 48 44 40 38 39 40 41
21 19 19 18 17 17 17 17 17 17 17 18 18 18 18 18 18 18 18 18 18 18 18 19 19 19 20 19 19 20 20 21 23 25 27 33 39 45 52 56 58 60 62 64 70 74 72 69 67 67 68 69 70 72 69 63 60 61 59 54 49 48 48 53 59 59 54 51 49 46 45 44 45 46
32 31 30 29 26 23 21 20 19 19 18 17 17 17 17 16 16 18 18 18 18 17 16 16 16 16 16 16 16 16 16 16 17 17 18 19 21 22 27 33 37 42 45 49 57 64 66 67 67 68 70 68 65 67 70 65 58 56 55 50 45 43 43 48 57 61 58 54 52 49 48 49 50 51
35 36 36 35 34 32 31 31 29 27 26 24 23 22 22 21 21 21 20 21 21 21 20 21 22 21 21 20 19 18 17 15 14 15 15 15 16 17 16 17 19 24 27 30 36 41 44 48 53 56 61 65 65 65 68 67 61 57 54 51 47 41 38 43 55 61 60 59 57 52 49 51 54 55
33 33 34 34 35 35 36 36 36 35 34 33 31 31 30 29 28 28 26 27 29 30 31 31 31 30 29 29 28 27 26 24 22 20 19 19 18 18 19 21 19 15 14 17 22 25 27 32 38 41 46 53 58 60 61 61 58 54 52 54 51 41 35 41 54 62 61 60 61 59 54 53 56 57
35 34 34 34 34 35 36 36 36 36 36 36 36 36 36 36 37 37 37 36 37 35 33 32 30 29 30 30 30 30 29 29 29 28 27 28 29 28 36 48 51 43 35 28 22 18 16 18 22 25 27 30 35 41 47 51 52 49 47 50 48 39 34 37 46 58 64 63 61 61 60 60 61 63
37 36 37 36 36 36 36 36 37 36 36 36 36 36 37 38 39 39 38 37 35 32 30 27 25 25 28 29 30 30 30 29 30 32 33 36 37 37 38 43 48 52 54 55 51 46 40 37 33 28 27 29 30 29 30 33 36 36 37 43 43 36 33 33 34 45 62 67 62 60 64 67 66 67
36 37 37 37 37 37 36 36 36 36 36 36 35 34 34 34 33 34 33 32 30 28 27 24 22 24 29 31 31 32 32 31 32 33 35 38 41 42 41 38 36 36 37 43 53 60 67 74 74 66 60 58 53 47 42 38 36 35 36 44 46 37 33 33 29 30 46 61 61 57 61 68 68 66
35 35 35 35 35 34 34 34 34 34 34 33 32 32 31 30 30 30 29 29 28 26 24 23 22 26 31 33 34 34 34 35 36 37 37 39 40 42 42 41 40 40 39 37 37 37 42 52 60 67 77 82 78 74 72 65 60 61 60 59 57 51 48 46 34 24 35 56 63 60 59 64 70 70
36 36 36 36 36 36 36 36 35 35 35 35 35 35 34 33 33 32 32 31 29 28 26 25 26 29 32 34 35 38 39 41 42 42 40 39 40 42 43 41 38 39 45 47 45 40 37 37 35 37 52 67 71 73 77 73 70 76 81 76 66 57 56 57 46 32 35 47 55 62 66 67 69 72
27 29 30 30 31 32 34 35 36 37 38 39 41 42 41 40 39 37 36 34 31 30 29 28 29 32 35 38 40 43 47 48 49 50 47 42 39 38 38 40 39 39 42 44 45 47 50 54 54 46 41 45 46 43 46 50 51 58 70 75 67 49 41 45 43 34 29 28 33 50 68 73 71 71
11 13 14 15 16 18 21 24 27 30 33 36 39 41 42 42 42 40 38 36 34 34 33 32 34 37 40 45 48 51 53 54 56 57 55 52 49 44 39 35 32 33 37 37 37 41 44 52 66 69 61 59 57 49 47 48 43 38 40 43 40 31 24 27 31 32 33 30 24 30 50 65 71 72
8 8 8 8 8 8 9 10 12 15 18 23 28 34 40 43 45 46 46 44 43 43 43 42 44 47 49 53 56 59 59 59 60 60 59 57 56 55 54 49 41 38 39 34 31 34 35 39 54 67 69 69 69 67 72 76 69 60 55 47 43 41 35 29 32 38 42 38 26 21 30 41 51 59
10 10 10 9 9 9 8 8 8 8 9 10 15 22 31 39 45 49 52 53 54 56 58 59 59 61 61 61 63 64 64 64 63 61 59 58 56 57 62 65 63 63 63 53 42 42 44 44 48 56 62 67 68 65 70 80 80 77 78 76 72 69 62 55 54 58 56 46 35 31 32 30 33 45
14 13 13 13 12 11 11 11 10 10 9 8 8 11 18 27 36 44 50 54 56 59 63 66 68 70 69 67 67 67 65 65 63 61 59 58 56 57 63 69 73 81 88 84 75 74 76 73 67 60 54 55 61 60 58 65 73 74 76 77 70 67 70 74 74 72 68 59 51 50 49 44 41 44
17 17 17 16 16 15 14 13 13 12 11 10 8 8 9 12 19 28 37 44 50 54 56 59 63 67 68 68 67 65 63 61 59 58 58 56 54 56 63 71 78 85 92 95 94 95 97 95 93 88 73 62 59 51 44 54 70 70 65 65 61 61 72 82 82 80 78 72 67 69 71 67 60 53
20 20 20 19 19 19 18 17 16 15 14 13 11 10 9 8 9 13 18 26 35 42 45 47 50 53 58 63 63 62 61 60 59 59 59 56 53 55 63 75 85 91 93 95 96 98 100 98 98 100 96 86 74 55 43 54 71 70 63 66 67 67 74 78 75 75 74 68 65 71 76 74 66 57
26 26 25 24 23 23 21 21 20 19 18 18 16 14 13 11 10 10 11 16 24 30 33 37 41 45 52 59 64 66 68 68 68 68 66 63 59 58 63 73 85 93 98 98 98 98 99 99 98 99 100 97 89 76 65 64 66 62 66 76 78 74 74 74 69 67 67 65 62 63 68 72 70 65
34 33 32 31 30 30 29 27 26 24 23 22 20 19 17 15 13 12 11 16 24 33 40 44 47 52 58 65 69 73 76 79 79 76 72 70 68 68 72 77 84 93 97 98 99 99 98 98 100 101 101 98 93 91 91 86 74 64 66 76 80 77 76 80 82 79 74 71 67 62 62 66 68 67
42 41 39 38 37 36 36 35 34 32 31 29 26 25 23 20 18 15 12 13 20 34 50 61 63 61 62 64 68 73 77 81 84 82 79 75 72 74 80 84 88 95 98 96 97 100 100 100 99 99 102 100 93 92 99 97 86 74 69 71 77 80 82 89 95 91 82 78 76 73 71 71 70 69
50 49 48 46 45 43 42 41 40 39 38 37 35 33 30 26 24 21 17 14 13 19 36 56 67 70 65 61 61 67 74 79 81 82 84 81 77 77 81 83 85 91 94 94 96 99 99 98 95 91 94 94 89 89 95 94 88 85 82 78 78 81 84 89 94 93 90 89 86 83 81 81 81 79
52 51 50 50 50 49 49 48 46 46 45 44 42 41 38 35 31 27 23 20 16 12 15 26 41 54 59 58 55 58 68 77 78 77 78 80 79 80 83 86 88 91 93 94 96 99 100 100 96 91 88 85 80 79 81 81 83 87 89 89 89 85 80 79 83 87 91 91 89 89 91 92 90 85
53 52 52 52 51 51 52 52 52 52 51 50 49 47 46 44 40 36 30 25 22 18 13 11 14 22 32 41 43 44 54 69 77 76 73 71 74 80 87 92 95 97 98 99 99 99 100 100 100 98 92 85 82 80 73 70 74 77 78 85 94 94 86 81 80 82 85 87 88 93 98 101 97 87
57 58 58 58 58 58 58 58 58 58 56 56 56 54 53 51 48 45 40 33 27 24 20 16 11 9 12 19 26 30 38 53 70 79 76 68 66 72 81 91 97 98 99 100 100 100 101 99 100 101 95 86 84 82 70 62 64 67 66 70 78 84 86 84 79 74 72 76 84 91 96 98 95 88
49 50 51 53 57 63 65 65 65 64 62 62 61 60 59 57 55 54 51 45 36 29 24 21 18 12 8 10 14 20 26 35 51 68 75 68 62 64 72 81 89 94 97 99 99 100 101 99 99 101 98 90 85 79 68 59 57 57 55 55 58 64 68 69 65 58 53 56 67 78 85 87 88 88
Wind_Speed
26 26 26 27 27 27 27 26 24 22 21 21 20 20 19 19 18 16 15 15 15 16 18 19 20 19 17 14 14 15 16 16 16 17 16 15 15 15 13 12 11 10 10 10 10 9 10 10 11 12 13 13 14 14 12 11 12 12 12 12 12 12 12 12 13 13 13 13 14 14 13 13 13 13
29 30 30 31 31 30 30 29 27 26 25 24 23 22 22 21 20 19 18 16 15 15 17 19 20 21 21 18 16 16 17 17 17 18 19 18 18 18 16 14 14 12 12 12 12 11 11 11 11 11 12 12 13 14 14 13 12 12 12 12 12 11 11 12 12 13 13 13 14 15 15 15 14 14
33 33 33 34 34 33 32 30 29 28 28 27 26 26 24 23 23 22 22 20 17 16 16 17 19 21 24 25 22 20 19 18 18 19 20 20 19 20 19 17 16 15 14 14 14 14 13 13 13 12 13 12 12 13 14 14 13 12 12 12 12 12 12 12 12 12 13 13 14 15 16 16 16 15
37 37 36 35 34 33 32 29 28 28 28 29 29 29 28 26 25 24 25 25 21 19 19 19 19 21 25 27 27 25 22 20 19 20 21 22 22 22 22 20 19 17 16 16 15 15 15 15 14 14 14 13 13 13 13 13 14 14 13 13 13 13 13 13 14 13 13 13 14 15 15 16 17 17
38 37 37 36 35 36 33 29 28 27 26 28 30 31 31 30 28 28 28 28 26 23 22 22 21 21 23 27 28 29 27 24 22 21 22 24 25 25 24 24 23 21 20 19 18 17 17 16 16 16 16 15 14 13 13 13 13 14 14 15 14 14 14 14 15 15 15 14 14 15 16 16 17 18
32 31 33 33 34 39 38 32 29 27 26 27 29 31 32 32 31 31 30 30 29 28 27 26 25 23 22 23 26 28 29 29 27 25 23 24 26 26 26 26 26 25 24 23 21 20 19 18 18 17 17 17 16 15 14 14 15 15 15 15 16 15 15 15 15 16 16 16 15 15 16 17 17 18
29 28 30 30 30 35 38 36 33 30 27 27 28 30 32 33 32 32 31 30 30 30 29 28 27 24 22 22 24 27 29 30 30 29 26 25 25 25 26 26 26 26 26 24 23 22 21 20 20 19 19 18 18 18 17 16 16 17 17 17 16 16 16 16 16 17 17 17 16 16 17 17 18 18
29 28 30 30 29 32 35 35 35 34 31 31 31 30 30 31 32 32 31 30 30 30 31 31 29 27 26 26 27 28 28 29 31 31 30 28 27 27 27 26 24 24 25 25 23 22 22 21 21 21 20 20 19 20 20 19 19 18 19 19 18 18 17 17 17 17 17 17 17 17 17 17 17 17
30 30 31 33 34 36 37 36 36 37 35 34 34 32 30 30 32 32 31 30 31 32 33 32 31 30 31 31 31 30 30 31 32 33 33 32 31 31 31 29 25 24 26 26 25 24 23 22 22 22 22 21 21 21 21 22 22 21 20 20 21 20 19 18 18 18 17 18 18 18 18 17 17 17
32 32 32 33 35 37 39 38 38 37 37 37 37 34 31 32 33 33 31 30 33 35 34 33 31 30 31 33 32 31 31 32 33 34 35 35 34 34 35 34 31 28 26 25 26 26 25 24 24 24 24 23 23 23 23 23 23 24 23 22 22 22 21 20 19 19 18 18 18 18 18 17 17 17
33 34 33 33 34 35 37 38 39 38 37 38 39 38 36 35 34 32 29 31 36 37 36 36 34 31 31 33 33 31 32 35 36 34 33 35 36 37 39 39 37 33 28 26 25 24 25 25 25 25 25 24 23 23 23 24 24 25 25 25 24 23 23 22 21 21 20 19 18 18 18 18 17 17
31 33 33 33 34 34 35 35 36 37 37 37 38 39 38 37 34 32 31 33 36 38 39 39 37 34 33 33 32 31 32 36 38 36 34 36 36 36 39 40 39 36 32 30 27 26 25 25 24 25 24 24 23 23 23 24 25 25 25 26 26 25 24 24 23 23 22 21 20 19 19 18 18 17
30 31 32 33 33 33 33 32 32 32 34 35 36 37 37 37 36 34 33 34 37 38 39 40 39 37 37 36 33 33 34 36 37 36 37 38 36 36 38 40 41 41 38 33 31 29 29 27 25 26 26 25 25 25 25 25 25 25 25 25 26 26 26 26 25 25 24 23 22 21 21 20 19 19
29 29 30 31 31 31 31 31 31 31 32 32 33 34 36 38 37 35 33 35 37 38 38 40 39 39 40 39 37 37 38 39 39 37 38 39 38 37 39 40 42 44 42 39 36 33 32 31 30 29 28 27 27 27 27 26 25 24 25 25 26 27 27 28 27 27 26 25 25 24 23 22 21 21
29 29 30 30 30 30 30 30 31 31 31 30 30 31 33 35 36 34 34 34 35 36 38 39 38 39 41 40 38 39 40 41 43 41 40 41 40 40 42 42 41 41 41 42 39 35 35 36 36 34 32 30 30 30 29 28 27 25 25 26 27 27 29 30 29 29 28 28 28 27 26 25 23 22
31 31 31 31 32 31 31 31 31 31 30 29 29 31 32 35 35 33 33 34 34 36 37 39 39 40 42 41 41 42 43 45 46 45 44 43 43 44 45 46 44 41 41 42 41 38 38 39 39 38 36 34 34 34 32 31 30 29 28 27 27 28 29 31 31 31 31 30 30 30 29 27 26 25
34 34 34 34 34 34 33 33 33 33 32 31 32 32 33 35 35 34 34 34 34 35 36 39 40 39 40 41 42 41 42 45 47 46 45 44 45 48 47 47 47 45 43 44 44 43 42 40 39 38 36 36 37 37 35 32 32 32 31 30 30 31 31 31 32 32 32 32 32 32 31 30 29 27
35 35 36 36 36 35 34 33 34 34 35 35 36 36 35 35 36 36 37 36 36 36 37 39 40 38 38 40 41 40 41 44 46 46 45 45 47 49 49 49 50 49 47 48 49 47 43 42 43 43 39 38 40 42 39 36 36 36 36 36 37 37 35 34 33 33 33 33 33 33 33 32 31 30
36 36 36 36 36 35 34 34 35 36 36 37 38 38 37 36 37 38 38 38 38 39 40 42 42 41 41 41 41 41 42 44 45 45 45 47 49 49 49 50 51 50 49 50 51 50 46 43 46 48 44 42 44 46 44 43 42 41 40 41 42 41 40 39 36 34 34 33 34 34 33 33 33 33
37 37 36 36 36 36 36 36 37 37 37 37 38 39 39 39 39 39 39 39 40 41 42 43 45 44 44 44 44 44 44 45 46 46 47 49 50 50 50 51 51 50 49 50 52 54 52 49 50 53 51 49 50 50 49 48 46 44 43 44 42 39 39 40 40 37 35 34 33 33 34 34 35 35
39 39 38 39 39 39 39 39 39 39 39 39 40 41 42 42 42 41 41 41 42 43 44 45 46 47 47 47 47 47 47 47 47 49 51 51 50 52 53 53 52 51 51 50 51 55 56 54 54 56 56 55 53 52 51 49 48 47 45 43 40 37 36 38 40 39 38 37 35 34 34 35 35 37
39 39 38 39 39 40 40 40 40 40 40 41 42 43 44 45 45 44 44 45 45 45 46 47 48 48 49 50 51 51 51 51 50 52 54 53 52 55 57 56 55 54 54 50 49 55 58 56 55 56 56 56 54 52 52 50 48 47 44 40 39 38 37 38 39 40 40 40 38 37 36 36 37 39
34 34 34 35 37 38 39 38 38 39 41 42 43 44 46 47 46 46 46 46 47 47 48 49 49 50 50 51 53 53 54 54 54 55 56 56 56 57 58 58 58 60 60 54 49 53 57 56 55 55 56 58 56 53 52 51 49 47 44 40 39 40 39 39 39 41 42 42 41 39 38 38 39 41
28 29 30 31 33 34 34 34 35 36 38 40 41 42 43 44 45 45 45 45 45 46 46 46 46 48 48 49 51 52 53 54 54 55 56 57 58 59 60 60 61 63 63 59 54 55 57 57 57 56 56 58 57 53 52 51 49 48 46 43 41 40 40 39 39 40 42 44 43 41 40 40 42 43
25 26 27 27 28 29 30 30 31 31 32 34 36 36 38 39 40 42 42 42 41 42 43 44 44 45 46 48 49 50 52 53 53 54 55 56 57 58 59 60 61 64 65 62 59 59 59 58 57 56 56 58 57 55 54 54 53 51 49 48 45 42 42 42 40 39 41 44 45 43 42 43 44 45
23 23 23 24 24 25 26 26 27 27 28 29 31 33 34 36 37 38 40 40 39 40 42 43 44 45 46 48 49 50 51 52 53 53 55 56 57 57 56 55 56 59 60 59 59 62 63 62 60 59 59 60 59 58 57 57 55 53 52 52 49 45 43 43 42 41 40 42 45 45 43 44 45 46
20 20 21 21 22 23 24 25 25 27 28 29 30 32 33 35 36 38 39 40 41 42 43 44 45 46 48 49 50 50 51 52 52 53 54 55 57 58 58 57 57 57 55 52 51 54 57 59 60 60 61 60 60 60 61 60 57 54 54 55 53 48 45 43 43 41 38 39 43 44 43 44 46 46
20 21 21 22 23 24 25 27 28 29 30 32 33 34 35 36 38 39 40 42 43 44 45 46 47 47 48 49 50 50 51 51 52 53 54 55 55 57 59 60 60 60 58 54 51 50 50 51 53 54 55 56 58 58 59 58 57 55 53 53 53 50 46 44 43 41 38 38 41 43 44 45 45 45
23 24 25 26 27 28 29 31 32 33 34 35 37 37 38 40 40 41 42 44 45 46 47 47 47 47 47 48 48 48 48 49 50 51 53 54 54 55 56 58 59 60 60 59 58 56 55 56 55 53 52 52 53 54 55 55 55 54 52 51 51 49 46 45 44 43 40 39 39 42 44 44 44 44
22 24 25 27 28 29 30 31 32 33 34 35 37 38 39 41 42 42 43 44 46 46 46 45 45 45 46 45 45 45 45 45 46 47 49 50 51 51 52 54 56 57 58 59 59 57 57 58 59 60 59 58 57 56 55 55 55 53 51 49 48 48 48 48 47 46 43 40 38 39 43 44 45 45
21 22 23 24 25 25 26 27 28 29 30 31 32 33 35 36 38 39 40 41 42 42 42 42 42 43 43 42 42 42 42 42 41 41 43 45 46 46 46 48 50 51 51 53 54 54 52 52 53 56 59 62 64 64 63 62 61 60 57 55 54 56 55 53 52 50 46 43 40 39 41 44 45 46
22 22 23 23 24 25 25 25 26 26 27 28 28 29 30 31 33 34 35 36 38 38 39 40 40 40 40 39 39 39 39 39 39 38 38 41 43 43 44 45 47 47 46 47 48 49 49 48 47 48 50 53 56 58 59 61 63 64 64 64 65 67 66 62 59 55 49 47 46 43 42 43 45 46
22 23 23 24 24 25 25 26 26 26 27 27 28 28 29 29 30 31 32 34 35 36 37 38 39 39 38 38 37 37 37 37 38 37 38 39 40 42 43 44 45 44 44 45 44 44 45 45 44 44 46 49 51 51 52 55 58 58 60 60 59 61 62 61 58 55 52 51 51 49 46 46 47 49
23 24 25 25 26 26 27 28 29 29 30 30 30 30 30 30 31 31 32 33 34 35 36 38 38 39 39 38 38 38 38 39 39 39 40 41 41 41 41 41 42 41 41 42 42 41 40 40 41 41 42 45 49 51 53 56 57 55 55 55 55 55 56 56 55 54 54 54 53 52 51 50 49 49
25 25 25 26 27 28 28 29 29 30 31 31 32 32 32 32 32 33 34 34 35 36 37 38 39 40 41 41 41 41 41 42 42 41 41 42 43 43 42 41 41 40 39 39 39 38 37 37 39 41 41 42 45 48 50 53 54 54 54 55 56 55 53 53 53 53 53 53 54 56 57 55 51 49
26 26 27 27 27 28 28 29 29 29 30 30 31 32 33 33 33 34 35 36 37 38 38 39 40 41 42 43 44 44 43 44 44 44 43 43 43 43 43 43 43 42 41 41 40 38 38 38 38 40 42 42 44 47 47 46 47 50 53 55 55 54 51 50 51 51 52 53 54 55 55 53 50 49
26 27 27 28 28 29 29 29 29 29 30 30 30 31 32 33 33 34 35 36 37 38 39 40 40 41 42 43 44 45 45 45 45 45 45 44 43 42 42 43 44 44 43 43 42 41 40 39 39 41 42 43 45 47 48 45 43 45 48 50 51 51 51 51 53 54 54 55 55 55 54 53 52 51
26 27 27 28 28 29 29 30 30 30 31 31 31 31 32 32 33 34 34 35 35 36 38 38 39 40 41 41 42 43 44 44 44 44 44 43 43 42 41 40 42 45 46 45 43 43 42 42 42 42 42 43 45 45 45 46 45 45 45 47 49 51 50 50 53 55 54 54 56 55 55 57 55 51
28 29 29 29 29 30 30 31 31 31 31 32 33 33 33 33 33 34 34 35 35 35 35 36 36 37 37 38 39 40 41 41 42 43 43 42 41 41 40 39 39 42 46 47 47 45 44 44 44 43 43 44 45 45 44 46 46 45 45 47 50 52 50 47 49 51 51 51 53 54 54 56 56 53
30 30 31 31 31 31 31 32 32 33 33 33 33 33 34 35 35 35 35 36 36 35 34 34 34 35 35 35 36 37 38 39 40 41 42 42 41 39 38 38 37 38 40 44 48 49 49 48 47 46 45 46 47 47 48 49 49 48 47 47 49 50 49 46 46 48 48 47 48 49 50 52 53 53
30 31 31 32 32 32 32 32 33 33 34 35 35 35 35 35 35 36 36 36 37 37 36 35 35 35 35 35 36 36 37 38 38 39 40 41 41 39 38 37 37 36 37 40 43 47 50 53 54 53 51 49 49 50 53 54 53 51 50 48 48 49 49 48 47 48 48 47 47 46 47 48 50 51
30 30 31 31 32 33 33 33 34 34 34 35 36 36 37 36 36 36 37 37 37 38 38 38 37 37 37 36 36 36 36 37 38 38 38 39 39 40 39 38 37 37 38 39 40 42 44 48 51 53 55 53 51 53 56 58 57 55 52 50 49 48 49 50 50 50 49 49 47 45 44 45 48 51
29 30 31 32 33 33 34 34 35 35 35 36 36 37 38 38 38 38 38 37 37 38 39 39 39 39 39 38 37 37 36 37 38 38 38 38 38 39 39 38 37 36 38 40 42 42 43 45 46 47 50 53 53 54 56 58 57 56 54 52 52 51 50 50 50 50 50 50 49 47 44 43 46 50
29 30 31 32 33 34 34 34 35 35 36 37 37 37 38 39 39 39 39 39 38 38 38 39 40 40 39 39 38 37 36 36 37 38 38 38 39 39 38 38 37 37 38 40 42 42 42 43 44 43 44 48 51 53 55 56 56 56 54 53 54 54 53 53 52 52 53 53 53 52 50 47 48 50
28 29 30 31 32 33 34 34 35 35 36 36 37 37 37 38 39 39 40 40 39 39 39 39 39 40 40 40 39 38 37 36 36 36 37 37 38 39 39 38 38 37 38 39 41 41 41 41 41 40 39 41 45 48 50 51 52 53 52 52 52 53 53 53 53 53 54 54 54 56 56 54 53 52
Wind_Direction
262 260 258 257 257 260 263 265 267 269 271 274 276 279 283 287 289 290 290 290 290 290 288 287 290 293 292 282 275 274 274 273 271 268 269 270 268 266 263 261 262 266 275 284 292 302 313 321 328 333 336 337 337 337 339 341 345 348 350 352 351 350 348 346 344 343 343 341 336 335 336 340 345 346
260 258 257 255 255 258 261 261 263 266 267 269 271 273 275 279 283 287 288 286 288 291 289 286 285 287 292 292 285 276 273 272 271 270 270 269 269 267 265 265 267 266 269 275 282 290 298 306 313 319 324 330 332 331 330 329 332 336 340 342 343 342 341 340 341 339 339 339 337 335 334 335 339 341
259 255 251 250 251 253 256 257 260 263 265 267 270 270 271 274 278 281 283 283 284 286 286 284 280 276 279 286 289 284 279 275 273 272 272 272 272 270 268 267 268 270 269 269 274 279 285 291 298 304 310 317 322 324 324 322 321 322 325 328 330 330 329 329 330 331 332 332 332 332 331 331 332 333
272 264 256 253 252 252 251 250 252 258 262 266 269 270 271 272 275 277 280 281 282 283 282 281 276 270 267 272 281 285 283 279 274 271 271 274 274 273 272 271 270 271 271 269 269 272 277 282 287 293 298 304 309 314 316 314 312 312 312 314 316 318 319 318 319 320 322 324 325 327 327 327 327 327
276 268 261 262 265 266 264 255 249 252 258 264 266 269 270 271 273 274 276 278 280 279 279 278 277 274 266 264 271 279 281 280 276 272 270 271 273 273 273 274 275 274 273 271 269 268 271 275 280 284 288 292 296 302 306 307 306 304 304 304 305 307 308 309 310 311 313 316 317 320 322 322 323 323
272 262 260 265 268 271 272 269 260 254 254 261 265 267 268 270 272 273 274 275 275 275 275 276 274 272 269 265 265 267 272 277 279 277 271 267 268 271 273 275 277 277 277 276 273 270 270 271 274 278 281 284 286 289 294 298 300 300 298 299 300 301 301 301 302 304 306 308 310 312 315 317 319 319
269 262 264 268 270 270 272 275 274 266 258 258 263 266 268 270 271 272 274 275 275 273 273 271 269 268 270 272 268 262 263 268 272 274 274 270 266 268 272 274 276 277 280 281 279 277 276 274 274 276 277 280 280 282 285 287 292 295 294 294 295 297 299 299 298 298 298 300 302 305 307 310 313 314
269 265 265 267 270 269 269 272 273 269 263 257 258 262 265 268 271 272 273 274 274 272 270 270 275 280 281 280 278 273 269 268 266 265 266 267 266 267 268 270 272 273 277 280 281 282 283 282 280 278 278 279 279 280 281 281 283 287 290 291 290 291 294 296 296 295 294 294 296 298 300 303 306 308
268 265 262 263 265 267 270 273 271 269 267 263 258 256 258 264 268 268 268 271 271 271 273 276 281 284 282 279 277 275 274 276 275 272 271 270 269 268 266 265 267 269 270 274 277 280 283 283 282 281 281 281 282 281 281 280 279 280 283 286 287 287 288 291 292 292 291 290 291 293 295 298 300 302
268 267 265 265 267 270 273 273 272 272 275 276 271 265 262 261 259 260 264 270 272 272 274 277 277 279 281 281 280 277 277 279 280 280 280 277 275 276 274 268 265 266 267 268 271 275 279 280 279 280 280 281 282 283 283 281 279 277 278 279 281 283 284 285 286 287 287 287 287 289 291 293 295 297
268 267 268 269 269 270 271 270 271 273 277 281 281 278 277 272 265 264 267 270 272 273 274 274 273 274 279 281 278 276 277 279 282 283 281 277 280 286 285 277 271 270 269 267 269 272 274 275 274 275 277 278 280 282 283 283 281 278 276 275 275 276 279 281 280 280 282 283 283 284 284 287 290 291
269 268 270 272 273 274 275 273 271 272 275 278 277 277 280 281 278 276 274 272 274 275 276 276 274 274 278 279 276 273 273 276 282 285 280 277 280 283 283 281 276 273 271 270 271 270 270 272 273 273 274 275 277 279 279 280 280 279 277 275 273 272 273 274 275 276 277 277 278 279 279 281 284 286
275 275 275 277 278 279 279 276 274 273 275 277 276 274 276 278 276 274 275 276 278 278 277 276 276 276 278 278 276 273 272 274 279 281 277 278 281 279 277 278 278 278 277 275 274 271 268 270 271 271 271 272 274 274 274 275 279 281 279 275 273 270 268 268 269 271 272 274 274 274 274 276 278 281
281 281 281 282 283 283 283 282 280 279 278 280 281 278 277 278 278 277 278 279 279 278 277 275 277 278 280 281 280 278 276 275 275 276 275 277 279 276 273 275 278 279 277 275 276 275 271 270 271 269 269 270 271 271 273 275 278 278 277 273 270 268 266 265 264 265 268 270 271 271 271 272 273 276
281 281 282 283 283 283 283 282 279 278 278 279 281 281 280 281 281 281 281 281 279 278 278 278 278 278 279 281 281 280 279 277 276 277 276 275 275 274 272 273 276 276 271 271 275 274 269 269 269 268 268 268 269 270 272 274 274 273 274 274 271 269 268 265 263 262 263 265 268 269 269 268 269 272
280 280 280 280 281 281 282 281 280 279 279 277 274 275 278 280 281 282 282 282 281 280 281 281 281 280 280 280 279 278 277 276 276 276 275 273 273 273 272 272 273 270 268 269 273 273 271 269 267 268 271 271 270 272 273 274 274 274 273 274 273 271 269 267 265 264 262 262 264 265 266 267 267 268
277 277 277 277 277 278 278 278 279 279 279 276 272 271 273 276 279 280 280 280 281 280 280 280 279 281 282 281 280 280 279 277 276 276 275 275 275 274 274 275 275 273 272 273 274 275 277 276 271 269 273 275 273 273 274 273 275 277 276 276 276 274 270 267 265 265 264 262 261 261 263 264 265 265
272 273 274 274 274 275 275 275 275 275 275 274 273 272 272 273 275 278 279 280 281 281 280 280 280 281 280 280 279 279 278 278 279 280 281 279 276 275 276 277 278 278 278 278 277 276 278 281 277 273 275 278 276 275 274 273 274 276 275 276 280 278 272 267 265 264 263 262 261 261 261 262 263 265
269 270 270 271 271 272 272 271 270 270 270 271 273 274 274 274 274 275 276 277 278 278 278 279 279 278 277 277 278 277 277 277 278 280 281 279 277 277 278 277 277 277 278 279 280 279 280 281 280 277 278 279 277 276 277 278 280 279 277 278 281 279 271 266 264 262 260 260 261 260 260 260 260 262
268 269 269 270 270 270 269 268 268 269 270 270 272 273 273 273 272 272 273 274 275 275 274 275 276 277 276 276 276 276 276 277 278 278 278 277 278 279 279 277 276 276 276 277 278 280 280 280 280 280 280 280 277 275 276 279 281 282 282 282 282 278 271 265 262 261 258 258 259 259 259 259 259 259
266 267 267 268 270 270 270 271 271 273 274 274 274 274 273 273 272 272 272 272 272 272 273 273 274 275 276 276 275 275 275 275 277 277 276 276 277 278 278 277 277 277 277 276 276 278 278 279 280 281 282 281 278 275 276 279 281 282 282 280 278 277 273 266 262 261 260 259 258 257 258 259 259 258
268 269 269 270 271 271 272 273 274 275 276 276 276 276 276 275 275 275 274 273 272 272 272 273 273 274 274 275 275 275 274 274 274 274 274 274 275 275 275 276 277 277 275 274 274 276 277 278 279 281 282 282 280 278 279 281 282 281 279 276 274 276 277 270 262 260 262 262 259 256 257 258 259 258
270 270 270 270 271 271 272 273 274 274 274 274 275 276 277 278 278 279 279 278 277 275 274 274 274 274 274 274 273 273 272 272 272 271 272 272 272 271 272 274 275 275 274 273 273 273 275 277 278 278 279 280 279 279 280 280 281 280 276 273 272 275 278 274 264 258 260 261 259 258 258 258 258 257
269 269 270 271 272 273 274 275 275 275 275 276 277 278 279 280 280 280 280 280 280 280 279 278 277 276 276 275 275 274 274 273 272 271 271 271 270 270 270 270 270 271 273 275 274 273 273 274 275 275 276 276 277 277 277 277 278 277 275 273 274 276 279 277 270 263 259 259 259 260 262 262 259 256
274 274 274 275 276 277 277 277 278 278 280 281 282 282 282 282 281 281 281 280 280 281 281 281 280 279 279 278 278 277 277 276 275 275 274 273 272 271 271 270 270 269 270 271 272 271 271 272 272 272 272 272 273 275 275 275 275 275 275 275 275 277 278 276 274 271 263 257 257 260 264 265 263 261
280 280 280 279 279 279 279 280 281 282 282 284 285 286 286 285 285 285 284 284 284 283 283 284 284 284 284 283 281 280 279 278 277 276 275 274 273 273 272 271 270 270 270 271 271 271 270 270 270 271 271 271 272 273 273 273 274 275 275 275 275 276 276 275 274 275 268 258 255 259 264 265 264 263
282 283 282 281 281 280 281 281 282 283 284 285 285 286 286 287 287 288 288 289 289 289 289 289 289 289 289 287 285 283 282 281 279 276 275 273 272 272 271 270 269 269 269 271 271 271 271 271 271 270 270 271 271 271 271 271 272 272 274 274 274 274 274 273 273 275 272 261 254 255 258 260 262 263
289 288 286 285 285 284 283 283 284 285 286 286 286 286 287 287 288 289 289 290 291 291 291 292 291 291 292 291 289 287 285 283 280 278 276 274 273 272 271 271 270 270 268 266 264 264 266 269 269 269 269 268 269 270 269 270 271 270 270 271 271 271 272 273 274 277 277 268 258 253 253 256 261 263
294 293 292 291 289 288 287 287 286 287 287 287 287 288 288 288 288 289 289 290 291 291 291 292 292 292 294 294 293 291 288 286 284 281 279 277 276 274 273 271 270 270 270 268 265 262 260 262 264 266 267 266 267 268 268 269 271 269 267 265 266 269 271 272 274 277 277 273 265 257 253 254 258 260
299 298 297 296 296 295 295 294 293 292 291 290 290 290 289 289 289 289 290 290 290 290 291 291 291 293 294 295 294 293 291 289 288 287 285 283 280 279 277 275 273 271 270 269 267 265 262 261 261 262 262 263 264 265 266 269 270 267 264 262 263 266 269 269 271 273 273 273 271 264 257 254 254 254
310 309 308 307 307 307 307 306 304 302 300 298 295 292 291 290 289 289 289 288 289 290 291 292 293 295 297 298 298 297 295 294 293 293 292 289 287 284 282 280 278 275 272 270 269 268 266 264 262 261 261 262 263 263 264 266 267 265 263 262 263 265 267 266 267 269 268 268 269 266 258 252 248 248
314 313 313 312 311 311 310 309 309 308 307 306 303 299 296 295 293 293 293 292 293 294 295 296 297 299 301 302 303 302 302 300 300 299 297 294 292 290 286 283 280 278 276 273 270 268 266 265 263 261 259 259 261 262 262 263 265 265 265 265 266 268 267 264 264 265 264 263 264 263 258 252 248 249
313 313 312 312 311 311 311 311 311 312 312 312 312 310 308 305 302 300 299 298 298 299 299 300 301 302 303 304 305 306 305 305 306 305 303 299 296 293 290 286 283 281 280 277 274 271 268 266 264 261 257 255 256 257 260 262 263 263 265 266 268 269 267 263 261 262 262 262 263 262 258 255 253 254
312 312 312 312 313 314 315 316 317 317 317 317 316 315 314 313 310 307 304 302 300 300 300 301 302 303 303 304 304 305 305 305 305 305 304 302 298 295 292 289 286 284 283 281 278 275 273 271 268 265 261 257 255 254 256 260 262 263 264 265 265 265 264 262 259 258 258 261 263 261 258 256 256 255
313 314 314 314 315 316 317 318 319 319 319 318 318 316 315 315 314 312 309 306 303 301 300 299 300 301 301 302 302 302 303 303 303 302 302 302 299 294 289 286 284 283 283 282 281 281 280 279 276 272 267 261 258 255 253 255 259 262 264 264 264 265 266 264 261 259 258 260 262 260 257 255 254 254
317 316 315 315 315 316 317 318 318 318 318 317 317 316 315 315 313 312 311 309 307 305 303 302 301 300 300 300 300 300 300 301 301 301 301 302 301 296 289 282 278 277 277 276 277 280 281 282 282 280 275 268 263 259 256 254 255 258 260 261 263 265 265 264 263 262 261 260 261 260 256 254 253 254
321 320 320 319 318 318 317 317 317 317 316 316 315 315 315 314 313 311 310 309 308 308 307 306 305 303 302 302 301 300 300 300 301 302 302 302 303 300 293 283 274 271 271 272 273 273 274 276 279 280 280 277 272 266 262 258 253 252 255 258 260 261 262 262 261 261 261 261 261 262 260 259 258 259
324 324 324 323 322 320 320 319 318 317 316 316 315 314 314 313 313 312 311 309 308 308 308 308 308 307 306 306 304 303 303 302 301 301 303 304 305 304 301 292 280 270 266 266 267 269 270 271 272 272 274 276 275 272 270 266 259 252 253 257 259 258 260 262 261 259 259 261 261 262 263 263 263 263
325 325 324 324 323 323 322 321 320 319 318 317 316 315 314 314 313 312 311 311 310 310 310 310 310 310 310 310 309 308 306 305 303 301 302 303 305 306 306 303 294 282 272 266 263 264 266 267 268 268 269 271 272 272 273 272 266 258 253 253 255 257 259 262 263 262 261 261 260 259 260 262 264 264
321 321 321 320 320 320 320 320 320 320 320 319 318 316 315 314 313 312 311 310 310 309 309 309 310 311 312 313 313 313 311 309 306 303 302 302 303 304 304 304 302 297 288 278 270 265 264 263 264 265 267 269 269 269 269 268 265 260 254 249 251 255 258 259 262 264 263 262 261 260 258 258 260 260
315 314 314 315 314 314 315 315 316 317 317 318 318 317 316 314 313 311 310 309 308 308 307 307 307 309 311 312 313 314 314 313 310 307 304 301 300 299 300 301 301 300 298 292 284 277 271 267 264 263 263 265 266 265 265 264 262 261 260 255 252 253 254 255 259 261 261 261 264 265 262 260 261 260
312 311 311 312 312 312 312 312 312 312 313 313 314 314 314 314 313 311 309 308 307 306 305 305 305 305 307 309 310 311 311 311 311 310 309 307 303 299 297 298 300 301 301 300 298 294 289 282 274 267 262 261 261 261 261 261 260 261 262 261 257 255 253 254 257 260 260 260 261 263 263 262 261 261
313 313 313 313 313 312 312 311 311 310 310 311 311 310 310 310 310 310 308 307 306 305 304 304 303 303 304 305 306 307 308 308 308 310 311 311 311 307 302 299 298 300 301 301 301 300 299 296 291 281 268 260 258 258 259 259 259 261 261 260 259 257 255 253 254 255 256 256 256 257 260 261 260 260
314 314 314 314 313 312 311 310 310 309 309 310 310 310 308 307 307 307 307 307 306 305 304 303 303 303 303 303 303 304 304 304 305 307 309 311 312 312 309 304 299 297 298 299 299 298 298 297 297 294 281 267 259 258 259 259 259 260 261 260 259 258 257 256 255 253 252 252 251 253 256 258 258 260
314 313 313 314 313 312 311 310 309 309 308 308 309 309 309 308 307 306 306 306 306 306 305 304 303 302 302 302 301 301 302 301 301 302 304 307 310 310 310 308 302 298 297 298 298 298 298 298 299 298 291 277 265 260 260 261 261 261 262 261 261 260 259 259 258 257 254 252 250 251 252 254 256 258